Location: Jefferson
(30.9666°N, 81.7901°W)
Time: 21:42:50
(UTC+00:00)

ARIANE 6 FM1 Upper Stage - Pass Details

Date: 20 September 2024
Orbit: 563 x 595 km, 62.0° (Epoch: 13 October)

Event Time Altitude Azimuth Distance (km) Brightness Sun altitude
Rises 10:40:23 0° 321° (NW) 2,834 5.9 -8.2°
Reaches altitude 10° 10:42:43 10° 314° (NW) 1,930 5.0 -7.7°
Maximum altitude 10:46:51 43° 243° (WSW) 840 3.1 -6.8°
Drops below altitude 10° 10:50:58 10° 172° (S) 1,918 5.4 -5.9°
Sets 10:53:17 0° 165° (SSE) 2,813 6.4 -5.4°
